Weather in Koltubanovsky

Russia / Orenburg Oblast     52°56′19″N   52°01′54″E
temp.,
°C
wind,
m/s
gust,
m/s
humid.,
%
clouds,
%
prec.,
mm/h
press.,
hPa
HPBL,
m
28 september, tue
tue2823:00+6ene51054100 0.0 1013761
02:00+5ene5868100 0.0 10151001
05:00+4ne497399 0.0 1016816
08:00+3nne4107464 0.0 1018827
11:00+6ne585896 0.0 10191318
14:00+8ne5851100 0.0 10201613
17:00+9ne484497 0.0 10211807
20:00+6nne3105125 0.0 1022272
29 september, wed
wed2923:00+5nne3854100 0.0 1024315
02:00+4nne3960100 0.0 1025407
05:00+3nne3965100 0.0 1025376
08:00+2nne397023 0.0 1027325
11:00+7ne46515 0.0 10271076
14:00+9ne463836 0.0 10271746
17:00+10nne463571 0.0 10271930
20:00+5nne24515 0.0 102871
30 september, thu
thu3023:00+3nne38585 0.0 1029180
02:00+2ne22655 0.0 103035
05:00+1nne22695 0.0 103014
08:00+1nne12735 0.0 103120
11:00+7nne23475 0.0 1032642
14:00+10n23365 0.0 10311681
17:00+10nnw3335100 0.0 10301701
20:00+6nw225331 0.0 103111
1 october, fri
fri123:00+4nw116420 0.0 103110
02:00+6wsw1260100 0.0 103155
05:00+5wnw22665 0.0 103143
08:00+5w2569100 0.0 1031134
11:00+8w3661100 0.0 1031352
14:00+9w366396 0.0 1031436
17:00+11wnw356116 0.0 1030867
20:00+8w228581 0.0 103123
2 october, sat
sat223:00+9w2680100 0.0 1031161
02:00+9w268050 0.0 1031156
05:00+8wnw2485100 0.0 103185
08:00+9wnw268379 0.0 1031171
11:00+13wnw346424 0.0 1032567
14:00+15nw335587 0.0 10311391
17:00+15nnw235081 0.1 10311430
20:00+11nnw23669 0.0 103251